Back to catalog

IUS R/B(1)

AliveGTO
NORAD 28160·ROCKET BODY·🇺🇸 United States

Launched Feb 14, 2004 from Cape Canaveral Space Force Station

Loading…

TLE

StaleSource: Space-Track

Epoch: Sep 13, 2026, 14:59 UTC

1 28160U 04004C   26256.62430832  .00000508  00000-0  75647-3 0  9999
2 28160  28.4394  77.5493 7131032 265.8175  17.4552  2.42033922 64107

Track IUS R/B(1) in real time with AllMySat

Download on the App Store